Radiation Dose at Monitoring Post of Fukushima Daini Nuclear Power Station
Date,Time,MP-1(microSv/h),MP-2(microSv/h),MP-3(microSv/h),MP-4(microSv/h),MP-5(microSv/h),MP-6(microSv/h),MP-7(microSv/h),Wind Direction,Wind Velocity(m/s),Rain
2016/10/10,00:00,0.393,0.234,0.408,0.374,0.362,0.193,0.165,north-northwest,9.8,No
2016/10/10,00:10,0.393,0.236,0.406,0.374,0.364,0.193,0.166,north-northwest,6.7,No
2016/10/10,00:20,0.392,0.235,0.406,0.373,0.361,0.193,0.165,north,5.0,No
2016/10/10,00:30,0.392,0.236,0.408,0.377,0.363,0.194,0.166,north,7.3,No
2016/10/10,00:40,0.391,0.237,0.406,0.373,0.362,0.193,0.165,north,9.5,No
2016/10/10,00:50,0.392,0.236,0.408,0.376,0.362,0.193,0.165,north,9.7,No
2016/10/10,01:00,0.392,0.236,0.406,0.373,0.362,0.193,0.165,north,9.2,No
2016/10/10,01:10,0.394,0.235,0.406,0.373,0.361,0.192,0.165,north,9.3,No
2016/10/10,01:20,0.390,0.236,0.406,0.374,0.363,0.194,0.165,north-northwest,8.3,No
2016/10/10,01:30,0.392,0.237,0.406,0.373,0.364,0.192,0.165,north-northwest,6.4,No
2016/10/10,01:40,0.391,0.235,0.408,0.373,0.361,0.194,0.165,north-northwest,5.6,No
2016/10/10,01:50,0.391,0.236,0.405,0.374,0.364,0.193,0.165,north-northwest,5.6,No
2016/10/10,02:00,0.391,0.235,0.409,0.376,0.362,0.193,0.165,north-northwest,5.5,No
2016/10/10,02:10,0.391,0.237,0.406,0.373,0.364,0.193,0.165,north,5.3,No
2016/10/10,02:20,0.392,0.235,0.407,0.376,0.361,0.192,0.165,north,5.5,No
2016/10/10,02:30,0.390,0.236,0.405,0.374,0.361,0.193,0.165,north-northwest,4.6,No
2016/10/10,02:40,0.390,0.235,0.407,0.374,0.364,0.193,0.166,north-northwest,3.7,No
2016/10/10,02:50,0.391,0.235,0.406,0.371,0.360,0.194,0.165,north-northwest,4.3,No
2016/10/10,03:00,0.391,0.236,0.406,0.376,0.362,0.192,0.164,north-northwest,4.9,No
2016/10/10,03:10,0.392,0.235,0.405,0.374,0.361,0.193,0.165,north-northwest,4.6,No
2016/10/10,03:20,0.391,0.236,0.404,0.374,0.360,0.192,0.165,north-northwest,4.2,No
2016/10/10,03:30,0.392,0.235,0.407,0.373,0.363,0.192,0.165,north-northwest,5.0,No
2016/10/10,03:40,0.391,0.236,0.406,0.373,0.361,0.193,0.164,north,3.3,No
2016/10/10,03:50,0.391,0.235,0.409,0.374,0.365,0.193,0.165,north-northwest,5.2,No
2016/10/10,04:00,0.390,0.236,0.405,0.374,0.360,0.193,0.165,north,5.6,No
2016/10/10,04:10,0.390,0.235,0.405,0.377,0.362,0.192,0.165,north,5.1,No
2016/10/10,04:20,0.392,0.236,0.405,0.373,0.362,0.194,0.165,north,5.3,No
2016/10/10,04:30,0.390,0.235,0.404,0.375,0.362,0.193,0.165,north,5.3,No
2016/10/10,04:40,0.393,0.236,0.407,0.373,0.362,0.192,0.166,north-northwest,2.3,No
2016/10/10,04:50,0.392,0.235,0.405,0.376,0.360,0.192,0.165,north-northwest,1.6,No
2016/10/10,05:00,0.392,0.236,0.408,0.371,0.362,0.192,0.165,north,3.6,No
2016/10/10,05:10,0.391,0.233,0.405,0.376,0.361,0.193,0.164,northwest,2.2,Yes
2016/10/10,05:20,0.392,0.235,0.408,0.372,0.362,0.193,0.164,north-northwest,2.8,No
2016/10/10,05:30,0.391,0.235,0.405,0.375,0.361,0.192,0.165,north-northwest,4.2,No
2016/10/10,05:40,0.392,0.236,0.408,0.373,0.361,0.192,0.165,north-northwest,4.5,No
2016/10/10,05:50,0.392,0.234,0.407,0.375,0.363,0.193,0.165,north-northwest,4.7,No
2016/10/10,06:00,0.392,0.236,0.406,0.373,0.360,0.192,0.164,north-northwest,4.2,No
2016/10/10,06:10,0.392,0.234,0.407,0.375,0.363,0.191,0.165,north-northwest,2.7,No
2016/10/10,06:20,0.390,0.236,0.404,0.373,0.363,0.193,0.165,north,2.1,No
2016/10/10,06:30,0.393,0.237,0.407,0.372,0.361,0.193,0.164,north-northwest,3.9,No
2016/10/10,06:40,0.390,0.235,0.404,0.372,0.361,0.192,0.165,north-northwest,5.0,No
2016/10/10,06:50,0.395,0.236,0.407,0.372,0.362,0.192,0.166,north-northwest,5.4,No
2016/10/10,07:00,0.390,0.236,0.406,0.375,0.363,0.193,0.165,north-northwest,4.2,No
2016/10/10,07:10,0.392,0.235,0.409,0.372,0.360,0.194,0.165,north-northwest,3.9,No
2016/10/10,07:20,0.391,0.234,0.405,0.374,0.362,0.192,0.164,north-northwest,3.8,No
2016/10/10,07:30,0.391,0.236,0.408,0.373,0.359,0.193,0.166,north-northwest,4.3,No
2016/10/10,07:40,0.391,0.235,0.404,0.372,0.363,0.192,0.164,north-northwest,3.9,No
2016/10/10,07:50,0.393,0.235,0.407,0.372,0.360,0.193,0.165,north-northwest,4.1,No
2016/10/10,08:00,0.391,0.234,0.404,0.374,0.363,0.192,0.165,north-northwest,3.1,No
2016/10/10,08:10,0.392,0.235,0.405,0.371,0.360,0.192,0.165,north,3.6,No
2016/10/10,08:20,0.392,0.235,0.403,0.374,0.362,0.192,0.165,north,4.0,No
2016/10/10,08:30,0.391,0.235,0.406,0.372,0.359,0.193,0.165,north,3.6,No
2016/10/10,08:40,0.389,0.233,0.404,0.372,0.363,0.192,0.164,north-northeast,2.2,No
2016/10/10,08:50,0.392,0.235,0.407,0.372,0.362,0.192,0.164,northeast,3.9,No
2016/10/10,09:00,0.388,0.235,0.403,0.370,0.360,0.192,0.165,north-northeast,5.9,No
2016/10/10,09:10,0.393,0.233,0.407,0.372,0.360,0.192,0.164,north-northeast,5.4,No
2016/10/10,09:20,0.390,0.237,0.405,0.371,0.359,0.193,0.164,north,5.0,No
2016/10/10,09:30,0.392,0.234,0.407,0.374,0.363,0.193,0.166,north-northeast,3.7,No
2016/10/10,09:40,0.390,0.234,0.405,0.374,0.358,0.192,0.164,northeast,4.6,No
2016/10/10,09:50,0.388,0.234,0.407,0.371,0.360,0.193,0.165,north-northeast,3.6,No
2016/10/10,10:00,0.390,0.232,0.406,0.368,0.364,0.191,0.165,north-northeast,5.2,No
2016/10/10,10:10,0.390,0.234,0.406,0.370,0.360,0.192,0.164,northeast,4.5,No
2016/10/10,10:20,0.388,0.236,0.406,0.375,0.360,0.192,0.164,northeast,4.5,No
2016/10/10,10:30,0.390,0.235,0.404,0.374,0.362,0.193,0.166,north-northeast,4.9,No
2016/10/10,10:40,0.391,0.235,0.407,0.372,0.361,0.191,0.165,northeast,4.2,No
2016/10/10,10:50,0.389,0.236,0.403,0.372,0.361,0.193,0.164,northeast,6.4,No
2016/10/10,11:00,0.393,0.234,0.407,0.376,0.363,0.193,0.167,north-northeast,5.3,No
2016/10/10,11:10,0.390,0.237,0.406,0.372,0.360,0.192,0.166,northeast,4.7,No
2016/10/10,11:20,0.392,0.235,0.403,0.374,0.359,0.193,0.164,northeast,5.1,No
2016/10/10,11:30,0.392,0.234,0.407,0.377,0.364,0.194,0.164,north-northeast,4.3,No
2016/10/10,11:40,0.389,0.235,0.405,0.374,0.363,0.193,0.166,north-northeast,6.1,No
2016/10/10,11:50,0.389,0.235,0.404,0.370,0.359,0.193,0.165,northeast,5.4,No
2016/10/10,12:00,0.391,0.234,0.403,0.370,0.361,0.193,0.164,northeast,5.1,No
2016/10/10,12:10,0.388,0.236,0.408,0.375,0.361,0.193,0.165,northeast,5.8,No
2016/10/10,12:20,0.393,0.236,0.404,0.373,0.361,0.192,0.165,north-northeast,5.1,No
2016/10/10,12:30,0.390,0.234,0.407,0.373,0.363,0.193,0.164,northeast,5.3,No
2016/10/10,12:40,0.393,0.236,0.407,0.375,0.364,0.194,0.165,north-northeast,5.5,No
2016/10/10,12:50,0.393,0.235,0.404,0.374,0.360,0.192,0.165,northeast,4.6,No
2016/10/10,13:00,0.390,0.235,0.402,0.372,0.361,0.192,0.164,northeast,5.2,No
2016/10/10,13:10,0.392,0.236,0.406,0.374,0.363,0.193,0.165,northeast,6.2,No
2016/10/10,13:20,0.392,0.234,0.406,0.375,0.359,0.192,0.165,northeast,5.9,No
2016/10/10,13:30,0.395,0.236,0.406,0.373,0.362,0.193,0.164,northeast,5.1,No
2016/10/10,13:40,0.392,0.235,0.409,0.376,0.362,0.192,0.165,northeast,5.4,No
2016/10/10,13:50,0.395,0.235,0.405,0.376,0.362,0.193,0.165,north-northeast,5.0,No
2016/10/10,14:00,0.392,0.237,0.408,0.373,0.364,0.194,0.164,north-northeast,4.2,No
2016/10/10,14:10,0.392,0.235,0.405,0.376,0.362,0.193,0.166,northeast,5.1,No
2016/10/10,14:20,0.394,0.237,0.406,0.374,0.365,0.193,0.164,north-northeast,5.0,No
2016/10/10,14:30,0.394,0.236,0.407,0.376,0.362,0.193,0.165,north-northeast,4.6,No
2016/10/10,14:40,0.393,0.237,0.407,0.372,0.365,0.193,0.165,north-northeast,3.9,No
2016/10/10,14:50,0.392,0.235,0.406,0.378,0.363,0.194,0.166,north-northeast,3.2,No
2016/10/10,15:00,0.393,0.236,0.407,0.374,0.364,0.193,0.165,north-northeast,3.1,No
2016/10/10,15:10,0.393,0.235,0.407,0.377,0.361,0.195,0.165,northeast,4.0,No
2016/10/10,15:20,0.395,0.237,0.407,0.375,0.364,0.193,0.164,north-northeast,2.7,No
2016/10/10,15:30,0.393,0.236,0.408,0.375,0.362,0.194,0.166,north-northeast,3.0,No
2016/10/10,15:40,0.392,0.237,0.407,0.375,0.363,0.193,0.165,north-northeast,3.6,No
2016/10/10,15:50,0.392,0.236,0.408,0.375,0.362,0.193,0.165,north-northeast,3.7,No
2016/10/10,16:00,0.393,0.236,0.406,0.376,0.363,0.193,0.165,north-northeast,3.2,No
2016/10/10,16:10,0.392,0.236,0.408,0.375,0.363,0.193,0.166,north,4.4,No
2016/10/10,16:20,0.392,0.237,0.407,0.374,0.363,0.194,0.165,north,4.7,No
2016/10/10,16:30,0.393,0.235,0.407,0.376,0.362,0.193,0.166,north,3.9,No
2016/10/10,16:40,0.392,0.236,0.406,0.376,0.363,0.194,0.164,north,3.5,No
2016/10/10,16:50,0.395,0.236,0.408,0.375,0.363,0.194,0.166,north,2.8,No
2016/10/10,17:00,0.393,0.236,0.406,0.375,0.364,0.194,0.165,north,2.2,No
2016/10/10,17:10,0.393,0.237,0.407,0.376,0.363,0.193,0.166,north-northeast,2.5,No
2016/10/10,17:20,0.392,0.237,0.407,0.376,0.363,0.194,0.166,north,2.4,No
2016/10/10,17:30,0.393,0.237,0.409,0.375,0.363,0.193,0.167,north,3.1,No
2016/10/10,17:40,0.393,0.235,0.406,0.376,0.364,0.193,0.165,north,2.7,No
2016/10/10,17:50,0.394,0.236,0.408,0.374,0.363,0.193,0.166,north,2.8,No
2016/10/10,18:00,0.393,0.235,0.408,0.375,0.364,0.195,0.166,north,3.1,No
2016/10/10,18:10,0.394,0.237,0.409,0.375,0.363,0.194,0.165,north,2.8,No
2016/10/10,18:20,0.391,0.236,0.407,0.376,0.362,0.193,0.166,north,2.3,No
2016/10/10,18:30,0.395,0.238,0.407,0.376,0.364,0.194,0.166,north-northwest,1.9,No
2016/10/10,18:40,0.392,0.234,0.409,0.375,0.362,0.194,0.165,north-northwest,2.5,No
2016/10/10,18:50,0.395,0.237,0.408,0.376,0.364,0.193,0.164,north-northwest,2.2,No
2016/10/10,19:00,0.391,0.235,0.410,0.374,0.362,0.194,0.166,north-northwest,2.6,No
2016/10/10,19:10,0.394,0.237,0.407,0.379,0.364,0.194,0.165,north,2.1,No
2016/10/10,19:20,0.392,0.236,0.410,0.374,0.364,0.194,0.166,north,2.4,No
2016/10/10,19:30,0.393,0.235,0.408,0.376,0.363,0.193,0.166,north,2.2,No
2016/10/10,19:40,0.392,0.237,0.410,0.374,0.363,0.194,0.165,north-northwest,3.1,No
2016/10/10,19:50,0.393,0.235,0.407,0.375,0.362,0.193,0.166,north-northwest,1.8,No
2016/10/10,20:00,0.393,0.237,0.410,0.375,0.365,0.194,0.165,north,1.5,No
2016/10/10,20:10,0.393,0.234,0.407,0.375,0.362,0.194,0.166,north,1.8,No
2016/10/10,20:20,0.393,0.238,0.410,0.376,0.363,0.194,0.166,north,1.6,No
2016/10/10,20:30,0.392,0.236,0.407,0.375,0.362,0.194,0.166,north-northwest,2.0,No
2016/10/10,20:40,0.394,0.236,0.409,0.378,0.364,0.194,0.165,north-northwest,1.5,No
2016/10/10,20:50,0.391,0.236,0.408,0.375,0.364,0.194,0.165,north-northwest,1.9,No
2016/10/10,21:00,0.394,0.237,0.410,0.379,0.363,0.193,0.166,north-northwest,1.9,No
2016/10/10,21:10,0.392,0.237,0.407,0.375,0.363,0.194,0.165,north,1.8,No
2016/10/10,21:20,0.393,0.235,0.409,0.376,0.363,0.194,0.166,north,1.4,No
2016/10/10,21:30,0.392,0.237,0.409,0.374,0.365,0.194,0.166,north,2.3,No
2016/10/10,21:40,0.395,0.235,0.406,0.376,0.362,0.194,0.165,north-northwest,2.0,No
2016/10/10,21:50,0.392,0.237,0.409,0.375,0.364,0.193,0.165,north-northwest,1.8,No
2016/10/10,22:00,0.393,0.236,0.407,0.376,0.362,0.193,0.166,-,CALM,No
2016/10/10,22:10,0.394,0.237,0.410,0.374,0.363,0.194,0.165,north,5.2,No
2016/10/10,22:20,0.392,0.237,0.407,0.376,0.362,0.193,0.166,north,7.6,No
2016/10/10,22:30,0.394,0.236,0.409,0.376,0.365,0.194,0.165,north,7.2,No
2016/10/10,22:40,0.393,0.238,0.409,0.377,0.363,0.195,0.165,north,7.3,No
2016/10/10,22:50,0.395,0.238,0.410,0.377,0.362,0.194,0.167,north,5.9,No
2016/10/10,23:00,0.393,0.238,0.409,0.376,0.365,0.194,0.165,north,5.6,No
2016/10/10,23:10,0.396,0.237,0.410,0.377,0.361,0.193,0.166,north-northwest,3.9,No
2016/10/10,23:20,0.393,0.237,0.409,0.375,0.365,0.195,0.167,north-northwest,3.1,No
2016/10/10,23:30,0.395,0.237,0.407,0.379,0.363,0.194,0.167,north-northwest,5.4,No
2016/10/10,23:40,0.394,0.236,0.408,0.375,0.365,0.194,0.167,north-northwest,5.2,No
2016/10/10,23:50,0.392,0.237,0.408,0.377,0.363,0.193,0.166,north-northwest,5.0,No
